Location: Baumgarten
(49.0970°N, 12.7493°E)
Time: 19:12:01
(UTC+00:00)

Cosmos 371 Rocket - Pass Details

Date: 05 July 2020
Orbit: 684 x 698 km, 74.0° (Epoch: 12 August)

Event Time Altitude Azimuth Distance (km) Brightness Sun altitude
Rises 22:01:45 0° 340° (NNW) 3,087 8.5 -16.5°
Reaches altitude 10° 22:04:12 10° 348° (NNW) 2,163 7.2 -16.6°
Maximum altitude 22:08:50 42° 59° (ENE) 990 4.2 -16.8°
Enters shadow 22:11:46 20° 121° (ESE) 1,574 4.7 -16.9°
